Location: Akdamlar
(36.8729°N, 30.5187°E)
Time: 19:42:27
(UTC+00:00)

NOSS 3-2 (A) - Pass Details

Date: 18 September 2020
Orbit: 795 x 1413 km, 63.4° (Epoch: 25 October)

Event Time Altitude Azimuth Distance (km) Brightness Sun altitude
Rises 18:14:53 0° 329° (NNW) 4,036 7.5 -26.9°
Reaches altitude 10° 18:17:31 10° 332° (NNW) 3,153 6.8 -27.3°
Maximum altitude 18:25:15 70° 56° (NE) 1,393 4.0 -28.7°
Enters shadow 18:26:33 62° 104° (ESE) 1,488 4.0 -29.0°
